Regional Weather Roundup
Issued by NWS Burlington, VT

Current Version | Previous Version | Text Only | Print | Product List | Glossary On
Versions: 1 2 3 4 5 6 7 8 9 10 11 12 13 14 15 16 17 18 19 20 21 22 23 24 25 26 27 28 29 30 31 32 33 34 35 36 37 38 39 40 41 42 43 44 45 46 47 48 49 50
526 ASUS41 KBTV 230030 RWRBTV VERMONT REGIONAL WEATHER ROUNDUP NATIONAL WEATHER SERVICE BURLINGTON VT 700 PM EST MON JAN 22 2018 NOTE: "FAIR" INDICATES FEW OR NO CLOUDS BELOW 12,000 FEET WITH NO SIGNIFICANT WEATHER AND/OR OBSTRUCTIONS TO VISIBILITY. * THESE REPORTS ARE NOT UNDER NWS QUALITY CONTROL AND/OR DO NOT REPORT WEATHER SUCH AS PRECIPITATION AND FOG. VTZ001>019-230100- _____VERMONT_____ CITY SKY/WX TMP DP RH WIND PRES REMARKS BURLINGTON FRZ RAIN 25 22 88 SW6 30.12F WCI 18 6HR MIN TEMP: 23; 6HR MAX TEMP: 25; 6HR PCP: 0.11; MONTPELIER CLOUDY 28 27 96 S9 30.19S FOG WCI 19 6HR MIN TEMP: 28; 6HR MAX TEMP: 33; 6HR PCP: 0.05; MORRISVILLE MIX PCPN 31 29 92 CALM 30.16F FOG 6HR MIN TEMP: 30; 6HR MAX TEMP: 31; 6HR PCP: 0.06; ST. JOHNSBURY* N/A 29 29 100 MISG 30.17F 6HR MIN TEMP: 29; 6HR MAX TEMP: 34; 6HR PCP: 0.04; LYNDONVILLE* LGT SNOW 29 28 97 SE6 30.16F VSB 1 WCI 23 6HR MIN TEMP: 29; 6HR MAX TEMP: 32; MIDDLEBURY* MIX PCPN 25 23 93 CALM 30.12F 6HR MIN TEMP: 24; 6HR MAX TEMP: 26; RUTLAND* MIX PCPN 31 29 92 SE23G30 30.12R WCI 18 6HR MIN TEMP: 31; 6HR MAX TEMP: 37; 6HR PCP: TRACE; SPRINGFIELD FRZ RAIN 30 28 92 S5 30.24S FOG WCI 25 6HR MIN TEMP: 30; 6HR MAX TEMP: 34; 6HR PCP: 0.02; HIGHGATE* LGT SNOW 25 24 96 CALM 30.12F 6HR MIN TEMP: 23; 6HR MAX TEMP: 25; NEWPORT* LGT SNOW 24 23 98 CALM 30.14F VSB 3/4 6HR MIN TEMP: 24; 6HR MAX TEMP: 25; BENNINGTON LGT RAIN 37 32 82 E7 30.11R WCI 32 6HR MIN TEMP: 37; 6HR MAX TEMP: 42; 6HR PCP: 0.06; SUTTON* N/A 28 N/A N/A MISG N/A ISLAND POND* N/A 27 N/A N/A E8 N/A WCI 18 GALLUP MILLS* N/A 28 N/A N/A MISG N/A UNION VILLAGE* N/A 28 N/A N/A MISG N/A _____LAKE CHAMPLAIN_____ CITY SKY/WX TMP DP RH WIND PRES REMARKS BURTON ISLAND* N/A 27 25 93 MISG N/A COLCHESTER RF* N/A 25 23 93 SE2 N/A $$ NYZ007-026>031-035-052-083-087-230100- _____NORTHERN NEW YORK_____ CITY SKY/WX TMP DP RH WIND PRES REMARKS PLATTSBURGH FRZ RAIN 25 22 88 CALM 30.12S 6HR MIN TEMP: 22; 6HR MAX TEMP: 24; 6HR PCP: 0.17; SARANAC LAKE CLOUDY 29 28 96 N5 29.95F WCI 24 6HR MIN TEMP: 27; 6HR MAX TEMP: 33; 6HR PCP: 0.15; MASSENA MIX PCPN 21 19 92 NE21G28 30.07F FOG WCI 5 6HR MIN TEMP: 21; 6HR MAX TEMP: 23; 6HR PCP: 0.05; OGDENSBURG* LGT SNOW 24 22 94 NE13 30.00F WCI 12 6HR MIN TEMP: 24; 6HR MAX TEMP: 27; POTSDAM* CLOUDY 25 21 86 E10G22 30.00F WCI 15 STARK FALLS* N/A 36 N/A N/A SE17 N/A WCI 25 WATERTOWN FRZ RAIN 30 30 100 NE7 29.93F FOG WCI 23 6HR MIN TEMP: 29; 6HR MAX TEMP: 30; 6HR PCP: 0.10; FT DRUM DRIZZLE 37 36 93 SE12 29.92S WCI 30 6HR MIN TEMP: 28; 6HR MAX TEMP: 36; 6HR PCP: 0.04; ALBANY LGT RAIN 33 30 88 E3 30.13R VSB 1 6HR MIN TEMP: 33; 6HR MAX TEMP: 35; 6HR PCP: 0.06; GLENS FALLS MIX PCPN 28 28 100 SE5 30.14S WCI 23 6HR MIN TEMP: 28; 6HR MAX TEMP: 31; 6HR PCP: 0.01; $$ NHZ002-005-011-230100- _____NEW HAMPSHIRE_____ CITY SKY/WX TMP DP RH WIND PRES REMARKS LEBANON FRZ RAIN 31 26 82 VRB7 30.22F WCI 24 6HR MIN TEMP: 31; 6HR MAX TEMP: 35; 6HR PCP: TRACE; KEENE MIX PCPN 31 28 89 N6 30.23F WCI 25 6HR MIN TEMP: 31; 6HR MAX TEMP: 36; 6HR PCP: TRACE; MT WASHINGTON SNOWSHWR 16 16 100 S25G32 N/A VSB 0 WCI -3 6HR MIN TEMP: 15; 6HR MAX TEMP: 24; 6HR PCP: TRACE; PLYMOUTH CLOUDY 27 25 93 SE5 30.28F FOG WCI 21 6HR MIN TEMP: 27; 6HR MAX TEMP: 31; WHITEFIELD LGT SNOW 30 26 85 VRB3 30.17F FOG 6HR MIN TEMP: 30; 6HR MAX TEMP: 32; 6HR PCP: TRACE; $$ _____REGIONAL QUEBEC LOCATIONS_____ CITY SKY/WX TMP DP RH WIND PRES REMARKS MONTREAL LGT SNOW 19 16 86 NE24G31 30.15F VSB 1 WCI 2 QUEBEC CITY CLOUDY 16 7 67 E25 30.34F WCI -3 SHERBROOKE LGT SNOW 23 21 93 NE8 30.17F WCI 14 _____REGIONAL ONTARIO LOCATIONS_____ CITY SKY/WX TMP DP RH WIND PRES REMARKS OTTAWA LGTSLEET 19 16 86 E24G32 30.04F DRFTSNOWWCI 2 ______KEY______ VSB - VISIBILITY IN MILES WCI - WIND CHILL INDEX HX - HEAT INDEX $$ NNNN

USA.gov is the U.S. government's official web portal to all federal, state and local government web resources and services.